Time,TemperatureF,DewpointF,PressureIn,WindDirection,WindDirectionDegrees,WindSpeedMPH,WindSpeedGustMPH,Humidity,HourlyPrecipIn,Conditions,Clouds,dailyrainin,SolarRadiationWatts/m^2,SoftwareType,DateUTC
2013-03-31 00:02:00,66.0,62.4,29.84,South,170,6.0,6.0,88,0.00,,,0.00,0.0,meteobridge,2013-03-31 05:02:00,
2013-03-31 00:07:00,66.0,62.1,29.84,South,171,4.0,6.0,87,0.00,,,0.00,0.0,meteobridge,2013-03-31 05:07:00,
2013-03-31 00:12:00,66.4,62.4,29.84,South,172,4.0,6.0,87,0.00,,,0.00,0.0,meteobridge,2013-03-31 05:12:00,
2013-03-31 00:17:00,66.4,62.1,29.84,South,173,6.0,6.0,86,0.00,,,0.00,0.0,meteobridge,2013-03-31 05:17:00,
2013-03-31 00:22:00,66.4,62.1,29.84,South,176,6.0,6.0,86,0.00,,,0.00,0.0,meteobridge,2013-03-31 05:22:00,
2013-03-31 00:27:00,66.4,62.1,29.84,South,176,6.9,6.9,86,0.00,,,0.00,0.0,meteobridge,2013-03-31 05:27:00,
2013-03-31 00:32:00,66.4,61.7,29.84,South,177,4.0,6.0,85,0.00,,,0.00,0.0,meteobridge,2013-03-31 05:32:00,
2013-03-31 00:37:00,66.4,61.7,29.84,South,176,4.9,8.9,85,0.00,,,0.00,0.0,meteobridge,2013-03-31 05:37:00,
2013-03-31 00:42:00,66.6,61.5,29.84,South,179,10.1,10.1,84,0.00,,,0.00,0.0,meteobridge,2013-03-31 05:42:00,
2013-03-31 00:47:00,66.7,61.7,29.84,South,172,4.0,6.9,84,0.00,,,0.00,0.0,meteobridge,2013-03-31 05:47:00,
2013-03-31 00:52:00,66.7,61.3,29.83,SSE,163,6.0,8.9,83,0.00,,,0.00,0.0,meteobridge,2013-03-31 05:52:00,
2013-03-31 00:57:00,66.7,61.3,29.83,South,172,4.9,10.1,83,0.00,,,0.00,0.0,meteobridge,2013-03-31 05:57:00,
2013-03-31 01:03:00,66.6,61.2,29.83,SSE,165,4.9,11.0,83,0.00,,,0.00,0.0,meteobridge,2013-03-31 06:03:00,
2013-03-31 01:08:00,66.7,61.3,29.83,SSE,162,10.1,11.0,83,0.00,,,0.00,0.0,meteobridge,2013-03-31 06:08:00,
2013-03-31 01:13:00,66.7,61.3,29.83,South,169,4.0,6.9,83,0.00,,,0.00,0.0,meteobridge,2013-03-31 06:13:00,
2013-03-31 01:18:00,66.7,61.3,29.84,SSE,161,6.0,11.0,83,0.00,,,0.00,0.0,meteobridge,2013-03-31 06:18:00,
2013-03-31 01:23:00,66.7,61.3,29.84,SSE,161,8.9,8.9,83,0.00,,,0.00,0.0,meteobridge,2013-03-31 06:23:00,
2013-03-31 01:28:00,66.7,61.3,29.84,SSE,163,6.0,12.1,83,0.00,,,0.00,0.0,meteobridge,2013-03-31 06:28:00,
2013-03-31 01:33:00,66.6,61.2,29.84,SSE,159,4.9,8.9,83,0.00,,,0.00,0.0,meteobridge,2013-03-31 06:33:00,
2013-03-31 01:38:00,66.4,61.0,29.84,SSE,149,6.0,10.1,83,0.00,,,0.00,0.0,meteobridge,2013-03-31 06:38:00,
2013-03-31 01:43:00,66.4,61.0,29.84,SSE,148,2.9,6.0,83,0.00,,,0.00,0.0,meteobridge,2013-03-31 06:43:00,
2013-03-31 01:48:00,66.0,60.6,29.84,SSE,149,4.0,6.0,83,0.00,,,0.00,0.0,meteobridge,2013-03-31 06:48:00,
2013-03-31 01:53:00,65.8,60.8,29.84,SSE,161,4.0,8.9,84,0.00,,,0.00,0.0,meteobridge,2013-03-31 06:53:00,
2013-03-31 01:58:00,65.7,60.6,29.84,SSE,165,4.0,4.9,84,0.00,,,0.00,0.0,meteobridge,2013-03-31 06:58:00,
2013-03-31 02:03:00,65.7,61.0,29.84,South,169,4.0,4.9,85,0.00,,,0.00,0.0,meteobridge,2013-03-31 07:03:00,
2013-03-31 02:09:00,65.3,60.6,29.84,South,169,4.0,4.9,85,0.00,,,0.00,0.0,meteobridge,2013-03-31 07:09:00,
2013-03-31 02:13:00,65.1,60.4,29.84,South,170,4.0,4.9,85,0.00,,,0.00,0.0,meteobridge,2013-03-31 07:13:00,
2013-03-31 02:19:00,64.9,60.6,29.84,South,169,2.9,6.0,86,0.00,,,0.00,0.0,meteobridge,2013-03-31 07:19:00,
2013-03-31 02:24:00,64.8,60.4,29.84,South,169,2.9,4.0,86,0.00,,,0.00,0.0,meteobridge,2013-03-31 07:24:00,
2013-03-31 02:29:00,64.4,60.1,29.84,South,169,2.9,4.0,86,0.00,,,0.00,0.0,meteobridge,2013-03-31 07:29:00,
2013-03-31 02:34:00,64.0,60.1,29.84,South,169,2.0,2.9,87,0.00,,,0.00,0.0,meteobridge,2013-03-31 07:34:00,
2013-03-31 02:39:00,63.9,59.9,29.84,South,169,2.0,2.9,87,0.00,,,0.00,0.0,meteobridge,2013-03-31 07:39:00,
2013-03-31 02:44:00,63.7,60.1,29.84,South,169,0.9,4.0,88,0.00,,,0.00,0.0,meteobridge,2013-03-31 07:44:00,
2013-03-31 02:49:00,63.3,59.7,29.84,South,169,2.0,2.9,88,0.00,,,0.00,0.0,meteobridge,2013-03-31 07:49:00,
2013-03-31 02:54:00,63.1,59.5,29.84,South,169,2.0,2.9,88,0.00,,,0.00,0.0,meteobridge,2013-03-31 07:54:00,
2013-03-31 02:59:00,63.0,59.4,29.84,South,169,2.9,4.0,88,0.00,,,0.00,0.0,meteobridge,2013-03-31 07:59:00,
2013-03-31 03:04:00,63.0,59.7,29.84,South,169,2.9,4.0,89,0.00,,,0.00,0.0,meteobridge,2013-03-31 08:04:00,
2013-03-31 03:10:00,63.1,59.9,29.83,South,169,4.0,4.9,89,0.00,,,0.00,0.0,meteobridge,2013-03-31 08:10:00,
2013-03-31 03:15:00,63.3,60.3,29.83,South,169,4.0,4.9,90,0.00,,,0.00,0.0,meteobridge,2013-03-31 08:15:00,
2013-03-31 03:20:00,63.3,60.3,29.83,South,175,4.0,4.9,90,0.00,,,0.00,0.0,meteobridge,2013-03-31 08:20:00,
2013-03-31 03:25:00,63.7,60.6,29.83,South,180,4.0,4.9,90,0.00,,,0.00,0.0,meteobridge,2013-03-31 08:25:00,
2013-03-31 03:30:00,63.9,60.8,29.83,South,181,2.9,6.0,90,0.00,,,0.00,0.0,meteobridge,2013-03-31 08:30:00,
2013-03-31 03:35:00,63.9,60.8,29.83,South,179,2.0,4.9,90,0.00,,,0.00,0.0,meteobridge,2013-03-31 08:35:00,
2013-03-31 03:40:00,64.0,61.0,29.83,South,179,2.9,4.9,90,0.00,,,0.00,0.0,meteobridge,2013-03-31 08:40:00,
2013-03-31 03:45:00,63.9,60.8,29.82,South,179,4.0,4.9,90,0.00,,,0.00,0.0,meteobridge,2013-03-31 08:45:00,
2013-03-31 03:50:00,63.7,60.6,29.82,South,179,2.9,4.0,90,0.00,,,0.00,0.0,meteobridge,2013-03-31 08:50:00,
2013-03-31 03:55:00,63.7,60.6,29.82,SSE,167,4.9,6.0,90,0.00,,,0.00,0.0,meteobridge,2013-03-31 08:55:00,
2013-03-31 04:00:00,63.9,60.8,29.82,SSE,161,6.9,6.9,90,0.00,,,0.00,0.0,meteobridge,2013-03-31 09:00:00,
2013-03-31 04:05:00,64.0,61.3,29.82,SSE,161,4.9,6.0,91,0.00,,,0.00,0.0,meteobridge,2013-03-31 09:05:00,
2013-03-31 04:10:00,64.2,61.5,29.81,SSE,161,6.0,6.0,91,0.00,,,0.00,0.0,meteobridge,2013-03-31 09:10:00,
2013-03-31 04:15:00,64.2,61.5,29.81,SSE,159,4.9,6.9,91,0.00,,,0.00,0.0,meteobridge,2013-03-31 09:15:00,
2013-03-31 04:20:00,64.6,61.9,29.80,SSE,163,4.0,12.1,91,0.00,,,0.00,0.0,meteobridge,2013-03-31 09:20:00,
2013-03-31 04:25:00,64.8,62.1,29.80,South,170,6.0,8.1,91,0.00,,,0.00,0.0,meteobridge,2013-03-31 09:25:00,
2013-03-31 04:30:00,64.8,61.7,29.80,SSE,163,4.9,10.1,90,0.00,,,0.00,0.0,meteobridge,2013-03-31 09:30:00,
2013-03-31 04:36:00,64.6,61.5,29.80,South,171,6.0,6.9,90,0.00,,,0.00,0.0,meteobridge,2013-03-31 09:36:00,
2013-03-31 04:41:00,64.6,61.5,29.80,South,174,4.9,8.1,90,0.00,,,0.00,0.0,meteobridge,2013-03-31 09:41:00,
2013-03-31 04:46:00,64.6,61.9,29.80,SSE,155,6.0,8.1,91,0.00,,,0.00,0.0,meteobridge,2013-03-31 09:46:00,
2013-03-31 04:51:00,64.8,62.1,29.80,South,172,8.1,10.1,91,0.00,,,0.00,0.0,meteobridge,2013-03-31 09:51:00,
2013-03-31 04:56:00,64.8,62.1,29.80,South,170,6.9,6.9,91,0.00,,,0.00,0.0,meteobridge,2013-03-31 09:56:00,
2013-03-31 05:01:00,64.8,62.1,29.80,South,173,10.1,13.0,91,0.00,,,0.00,0.0,meteobridge,2013-03-31 10:01:00,
2013-03-31 05:06:00,64.8,62.1,29.80,South,178,6.0,11.0,91,0.00,,,0.00,0.0,meteobridge,2013-03-31 10:06:00,
2013-03-31 05:11:00,64.8,62.1,29.80,South,171,8.9,13.0,91,0.00,,,0.00,0.0,meteobridge,2013-03-31 10:11:00,
2013-03-31 05:16:00,64.8,62.1,29.80,South,176,6.9,11.0,91,0.00,,,0.00,0.0,meteobridge,2013-03-31 10:16:00,
2013-03-31 05:21:00,64.8,62.1,29.80,South,178,8.9,13.0,91,0.00,,,0.00,0.0,meteobridge,2013-03-31 10:21:00,
2013-03-31 05:26:00,64.9,62.2,29.79,South,186,8.9,16.1,91,0.00,,,0.00,0.0,meteobridge,2013-03-31 10:26:00,
2013-03-31 05:32:00,64.9,62.2,29.79,South,169,8.9,12.1,91,0.00,,,0.00,0.0,meteobridge,2013-03-31 10:32:00,
2013-03-31 05:37:00,65.1,62.4,29.79,South,190,13.0,17.0,91,0.00,,,0.00,0.0,meteobridge,2013-03-31 10:37:00,
2013-03-31 05:42:00,65.1,62.4,29.79,SSW,192,11.0,13.0,91,0.00,,,0.00,0.0,meteobridge,2013-03-31 10:42:00,
2013-03-31 05:47:00,65.3,62.6,29.79,South,182,4.9,15.0,91,0.00,,,0.00,0.0,meteobridge,2013-03-31 10:47:00,
2013-03-31 05:52:00,65.3,62.6,29.79,SSE,165,13.0,14.1,91,0.00,,,0.00,0.0,meteobridge,2013-03-31 10:52:00,
2013-03-31 05:57:00,65.5,62.8,29.78,SSE,164,12.1,17.0,91,0.00,,,0.00,0.0,meteobridge,2013-03-31 10:57:00,
2013-03-31 06:02:00,65.7,63.0,29.78,SSW,194,12.1,15.0,91,0.00,,,0.00,0.0,meteobridge,2013-03-31 11:02:00,
2013-03-31 06:07:00,65.7,63.0,29.78,South,188,13.0,15.0,91,0.00,,,0.00,0.0,meteobridge,2013-03-31 11:07:00,
2013-03-31 06:12:00,65.7,63.3,29.78,South,182,11.0,16.1,92,0.00,,,0.00,0.0,meteobridge,2013-03-31 11:12:00,
2013-03-31 06:17:00,65.8,63.5,29.78,South,190,17.0,21.9,92,0.00,,,0.00,0.0,meteobridge,2013-03-31 11:17:00,
2013-03-31 06:22:00,65.8,63.5,29.78,South,173,17.0,19.9,92,0.00,,,0.00,0.0,meteobridge,2013-03-31 11:22:00,
2013-03-31 06:27:00,66.0,63.7,29.78,South,184,15.0,19.9,92,0.00,,,0.00,0.0,meteobridge,2013-03-31 11:27:00,
2013-03-31 06:32:00,66.0,63.7,29.77,South,186,13.0,17.0,92,0.00,,,0.00,0.0,meteobridge,2013-03-31 11:32:00,
2013-03-31 06:37:00,66.0,63.7,29.78,South,184,15.0,19.0,92,0.00,,,0.00,0.0,meteobridge,2013-03-31 11:37:00,
2013-03-31 06:42:00,66.2,63.9,29.77,South,186,17.9,21.0,92,0.00,,,0.00,0.0,meteobridge,2013-03-31 11:42:00,
2013-03-31 06:47:00,66.4,64.0,29.77,South,176,14.1,17.9,92,0.00,,,0.00,0.0,meteobridge,2013-03-31 11:47:00,
2013-03-31 06:52:00,66.4,64.0,29.77,SSW,200,14.1,17.9,92,0.00,,,0.00,0.0,meteobridge,2013-03-31 11:52:00,
2013-03-31 06:58:00,66.4,64.0,29.77,South,173,16.1,19.9,92,0.00,,,0.00,0.0,meteobridge,2013-03-31 11:58:00,
2013-03-31 07:03:00,66.4,64.0,29.77,South,184,15.0,19.9,92,0.00,,,0.00,0.0,meteobridge,2013-03-31 12:03:00,
2013-03-31 07:08:00,66.4,64.0,29.77,SSE,164,10.1,19.0,92,0.00,,,0.00,0.0,meteobridge,2013-03-31 12:08:00,
2013-03-31 07:13:00,66.4,64.0,29.77,South,191,6.9,17.9,92,0.00,,,0.00,0.0,meteobridge,2013-03-31 12:13:00,
2013-03-31 07:18:00,66.6,63.9,29.77,South,171,13.0,16.1,91,0.00,,,0.00,0.0,meteobridge,2013-03-31 12:18:00,
2013-03-31 07:23:00,66.6,63.9,29.77,SSW,193,13.0,21.0,91,0.00,,,0.00,0.0,meteobridge,2013-03-31 12:23:00,
2013-03-31 07:28:00,66.6,63.9,29.77,SSE,167,12.1,17.9,91,0.00,,,0.00,0.0,meteobridge,2013-03-31 12:28:00,
2013-03-31 07:33:00,66.7,64.0,29.77,South,189,16.1,21.0,91,0.00,,,0.00,7.0,meteobridge,2013-03-31 12:33:00,
2013-03-31 07:38:00,66.7,64.0,29.78,South,183,6.9,19.0,91,0.00,,,0.00,9.0,meteobridge,2013-03-31 12:38:00,
2013-03-31 07:43:00,66.7,64.0,29.78,South,182,11.0,14.1,91,0.00,,,0.00,12.0,meteobridge,2013-03-31 12:43:00,
2013-03-31 07:48:00,66.9,64.2,29.78,SSW,194,13.0,19.0,91,0.00,,,0.00,11.0,meteobridge,2013-03-31 12:48:00,
2013-03-31 07:53:00,66.9,64.2,29.77,South,174,11.0,19.0,91,0.00,,,0.00,12.0,meteobridge,2013-03-31 12:53:00,
2013-03-31 07:58:00,66.9,63.9,29.78,South,190,19.0,21.0,90,0.00,,,0.00,9.0,meteobridge,2013-03-31 12:58:00,
2013-03-31 08:03:00,67.1,64.0,29.78,South,172,12.1,19.0,90,0.00,,,0.00,7.0,meteobridge,2013-03-31 13:03:00,
2013-03-31 08:08:00,67.1,64.0,29.78,South,179,23.9,23.9,90,0.00,,,0.00,7.0,meteobridge,2013-03-31 13:08:00,
2013-03-31 08:13:00,67.3,64.2,29.79,South,190,16.1,21.0,90,0.00,,,0.00,7.0,meteobridge,2013-03-31 13:13:00,
2013-03-31 08:18:00,67.3,64.2,29.79,SSW,194,17.0,25.9,90,0.00,,,0.00,5.0,meteobridge,2013-03-31 13:18:00,
2013-03-31 08:23:00,67.5,64.0,29.80,SSW,206,16.1,19.9,89,0.00,,,0.00,0.0,meteobridge,2013-03-31 13:23:00,
2013-03-31 08:28:00,67.5,64.0,29.85,NNE,24,12.1,12.1,89,0.00,,,0.00,0.0,meteobridge,2013-03-31 13:28:00,
2013-03-31 08:33:00,66.2,61.2,29.88,North,0,19.0,30.0,84,0.00,,,0.00,0.0,meteobridge,2013-03-31 13:33:00,
2013-03-31 08:39:00,64.0,58.5,29.89,NNE,19,27.1,36.9,82,0.00,,,0.00,0.0,meteobridge,2013-03-31 13:39:00,
2013-03-31 08:44:00,61.5,57.4,29.89,NNE,15,15.0,25.9,86,0.16,,,0.16,0.0,meteobridge,2013-03-31 13:44:00,
2013-03-31 08:49:00,59.9,56.3,29.90,NNE,17,16.1,19.0,88,0.22,,,0.22,0.0,meteobridge,2013-03-31 13:49:00,
2013-03-31 08:54:00,59.0,55.8,29.91,North,355,11.0,14.1,89,0.34,,,0.34,0.0,meteobridge,2013-03-31 13:54:00,
2013-03-31 08:59:00,58.8,55.9,29.92,ENE,61,8.9,13.0,90,0.41,,,0.41,0.0,meteobridge,2013-03-31 13:59:00,
2013-03-31 09:04:00,58.6,55.9,29.90,NNE,32,11.0,15.0,91,0.44,,,0.44,0.0,meteobridge,2013-03-31 14:04:00,
2013-03-31 09:09:00,58.6,55.9,29.91,NE,48,12.1,15.0,91,0.47,,,0.47,5.0,meteobridge,2013-03-31 14:09:00,
2013-03-31 09:14:00,58.6,56.3,29.90,NE,36,13.0,14.1,92,0.51,,,0.51,9.0,meteobridge,2013-03-31 14:14:00,
2013-03-31 09:20:00,58.6,56.3,29.91,NNE,32,8.1,14.1,92,0.52,,,0.52,18.0,meteobridge,2013-03-31 14:20:00,
2013-03-31 09:25:00,58.6,56.3,29.89,NE,53,8.1,14.1,92,0.52,,,0.52,42.0,meteobridge,2013-03-31 14:25:00,
2013-03-31 09:30:00,58.8,56.5,29.89,NNE,28,10.1,13.0,92,0.52,,,0.52,62.0,meteobridge,2013-03-31 14:30:00,
2013-03-31 09:35:00,58.8,56.5,29.89,NE,51,2.0,13.0,92,0.52,,,0.52,79.0,meteobridge,2013-03-31 14:35:00,
2013-03-31 09:40:00,59.0,57.0,29.88,East,80,6.0,13.0,93,0.46,,,0.52,105.0,meteobridge,2013-03-31 14:40:00,
2013-03-31 09:45:00,59.0,57.0,29.88,NE,50,6.9,12.1,93,0.33,,,0.52,127.0,meteobridge,2013-03-31 14:45:00,
2013-03-31 09:50:00,59.4,57.4,29.89,ENE,65,6.0,8.9,93,0.26,,,0.52,134.0,meteobridge,2013-03-31 14:50:00,
2013-03-31 09:55:00,59.5,57.6,29.89,ENE,62,0.0,6.0,93,0.14,,,0.52,158.0,meteobridge,2013-03-31 14:55:00,
2013-03-31 10:00:00,59.7,57.7,29.88,East,90,2.9,6.9,93,0.10,,,0.52,218.0,meteobridge,2013-03-31 15:00:00,
2013-03-31 10:05:00,60.4,58.5,29.89,ENE,72,4.0,8.1,93,0.06,,,0.52,468.0,meteobridge,2013-03-31 15:05:00,
2013-03-31 10:10:00,61.2,59.2,29.89,ENE,61,4.9,13.0,93,0.03,,,0.52,524.0,meteobridge,2013-03-31 15:10:00,
2013-03-31 10:15:00,61.7,59.7,29.88,East,101,4.0,10.1,93,0.00,,,0.52,554.0,meteobridge,2013-03-31 15:15:00,
2013-03-31 10:20:00,62.2,59.9,29.89,SE,137,2.9,12.1,92,0.00,,,0.52,299.0,meteobridge,2013-03-31 15:20:00,
2013-03-31 10:25:00,62.4,60.1,29.89,SE,126,4.0,10.1,92,0.00,,,0.52,684.0,meteobridge,2013-03-31 15:25:00,
2013-03-31 10:30:00,62.2,59.5,29.88,ENE,69,2.9,8.9,91,0.00,,,0.52,431.0,meteobridge,2013-03-31 15:30:00,
2013-03-31 10:35:00,63.0,60.3,29.89,SSE,168,6.0,8.9,91,0.00,,,0.52,707.0,meteobridge,2013-03-31 15:35:00,
2013-03-31 10:40:00,62.8,59.5,29.90,East,90,4.0,6.0,89,0.00,,,0.52,288.0,meteobridge,2013-03-31 15:40:00,
2013-03-31 10:46:00,62.2,59.0,29.90,ESE,111,2.0,4.9,89,0.00,,,0.52,274.0,meteobridge,2013-03-31 15:46:00,
2013-03-31 10:51:00,62.1,58.8,29.91,East,80,2.0,4.0,89,0.00,,,0.52,294.0,meteobridge,2013-03-31 15:51:00,
2013-03-31 10:56:00,62.6,59.4,29.91,ESE,103,2.0,4.9,89,0.00,,,0.52,290.0,meteobridge,2013-03-31 15:56:00,
2013-03-31 11:01:00,62.6,59.4,29.91,East,95,2.0,4.0,89,0.00,,,0.52,294.0,meteobridge,2013-03-31 16:01:00,
2013-03-31 11:06:00,62.8,59.2,29.91,East,90,2.0,4.9,88,0.00,,,0.52,311.0,meteobridge,2013-03-31 16:06:00,
2013-03-31 11:11:00,63.0,59.4,29.91,East,84,0.0,4.9,88,0.00,,,0.52,325.0,meteobridge,2013-03-31 16:11:00,
2013-03-31 11:16:00,63.5,59.9,29.92,East,84,2.9,4.0,88,0.00,,,0.52,369.0,meteobridge,2013-03-31 16:16:00,
2013-03-31 11:21:00,63.9,59.9,29.91,North,5,2.9,6.0,87,0.00,,,0.52,475.0,meteobridge,2013-03-31 16:21:00,
2013-03-31 11:26:00,64.2,59.9,29.91,NNE,21,2.0,4.0,86,0.00,,,0.52,459.0,meteobridge,2013-03-31 16:26:00,
2013-03-31 11:31:00,64.0,59.4,29.91,East,89,2.9,4.9,85,0.00,,,0.52,490.0,meteobridge,2013-03-31 16:31:00,
2013-03-31 11:36:00,64.2,59.5,29.90,East,94,0.0,0.9,85,0.00,,,0.52,501.0,meteobridge,2013-03-31 16:36:00,